746  
ASUS46 KSGX 120611  
RWRSGX  
 
SAN DIEGO HOURLY WEATHER ROUNDUP  
NATIONAL WEATHER SERVICE SAN DIEGO CA  
1100 PM PDT SUN APR 11 2021  
 
NOTE: "FAIR" INDICATES FEW OR NO CLOUDS BELOW 12,000 FEET WITH NO  
SIGNIFICANT WEATHER AND/OR S TO VISIBILITY
.  
 
CAZ042-043-060-061-PZZ750-775-120700-  
 
GREATER SAN DIEGO AREA  
 
CITY SKY/WX TMP DP RH WIND PRES REMARKS
 
SAN DIEGO AP CLOUDY 61 50 67 S10 29.84S  
CHULA VISTA N/A 59 53 79 CALM 29.67R  
BROWN FIELD CLOUDY 58 48 69 S6 29.83R  
MONTGOMERY FLD CLOUDY 58 49 72 S8 29.83R  
GILLESPIE FLD CLOUDY 59 50 72 S7 29.82S  
LEMON GROVE N/A 57 52 84 CALM 29.80S  
 

 
 
NORTH SAN DIEGO COUNTY  
 
CITY SKY/WX TMP DP RH WIND PRES REMARKS
 
CAMP PENDLETON CLOUDY 61 51 70 S6 29.83R  
OCEANSIDE AP CLOUDY 59 51 75 SE8 29.82R  
OCEANSIDE HBR N/A 59 53 80 CALM 29.89R  
VISTA N/A 57 52 82 CALM 29.80R  
CARLSBAD CLOUDY 58 50 75 S7 29.82R  
ENCINITAS N/A 57 52 84 CALM N/A  
LA JOLLA SCRIP N/A 57 51 79 CALM 29.82R  
FALLBROOK CLOUDY 55 52 88 SW5 29.83S  
ESCONDIDO N/A 58 52 81 S5 29.82R  
SAN MARCOS N/A 56 52 85 CALM 29.85R  
RANCHO BERNARD N/A 57 51 81 SE1 29.82R  
POWAY N/A 57 52 82 SE1 29.84R  
 

 
 
EAST SAN DIEGO COUNTY  
 
CITY SKY/WX TMP DP RH WIND PRES REMARKS
 
RAMONA CLOUDY 54 51 90 CALM 29.82S  
LA MESA N/A 56 50 80 CALM 29.77R  
DESCANSO N N/A 48 42 80 NE3 29.78S  
 

 
 
ORANGE COUNTY AND THE LOS ANGELES BASIN  
 
CITY SKY/WX TMP DP RH WIND PRES REMARKS
 
JOHN WAYNE AP MOCLDY 60 51 72 SE8 29.80F  
LAGUNA BEACH N/A 60 54 80 S3 29.80S  
LAKE FOREST FR N/A 55 49 81 SE2 29.70R  
HUNTINGTON BCH N/A 58 54 86 S1 29.80S  
LOS ALAMITOS CLOUDY 58 55 87 S5 29.81R  
FULLERTON CLOUDY 59 54 83 S6 29.80R  
LONG BEACH CLOUDY 58 52 80 SE5 29.81R  
L.A. AP MOCLDY 58 53 84 SE9 29.80S  
L.A. DOWNTOWN CLOUDY 61 54 77 CALM 29.79S  
 

 
 
THE INLAND EMPIRE  
 
CITY SKY/WX TMP DP RH WIND PRES REMARKS
 
CORONA CLEAR 56 53 90 VRB3 29.80R  
UPLAND AP N/A 55 54 94 W6 29.80R  
CHINO CLEAR 55 51 86 W3 29.81R  
ONTARIO PTCLDY 57 51 80 SW8 29.80R  
SAN BERNARDINO FAIR 61 50 67 W7 29.80S  
RIVERSIDE AP CLEAR 57 52 83 W5 29.80R  
MORENO VALLEY N/A 60 54 83 W3 29.73R  
MARCH ARB CLEAR 53 49 85 S6 29.80R  
PERRIS N/A 55 51 87 NW1 29.80R  
LAKE ELSINORE N/A 56 51 80 S1 29.73R  
HEMET AP FAIR 54 N/A N/A SW9 29.81S FOG  
FRENCH VALLEY CLOUDY 54 52 94 CALM 29.82S  
TEMECULA N/A 57 55 93 CALM 29.80R  
 

 
 
SAN BERNARDINO AND RIVERSIDE COUNTY MOUNTAINS  
 
CITY SKY/WX TMP DP RH WIND PRES REMARKS
 
BIG BEAR AP PTCLDY 36 21 55 CALM 29.98F  
BIG BEAR LAKE N/A 42 25 51 CALM 29.80S  
LK ARROWHEAD N N/A 50 30 45 CALM 29.71S  
WRIGHTWOOD N/A 54 24 31 CALM 29.67F  
IDYLLWILD N/A 47 34 59 CALM 29.65R  
 

 
 
SOUTHERN DESERT INCLUDING THE COACHELLA VALLEY  
 
CITY SKY/WX TMP DP RH WIND PRES REMARKS
 
PALM SPRINGS CLEAR 77 47 34 NW13 29.65R  
THOUSAND PALMS N/A 75 49 39 NW9 29.59R  
PALM DESERT N/A 74 49 40 CALM N/A  
INDIO N/A 78 49 35 W7 29.62R  
THERMAL CLEAR 77 46 33 NW8 29.61R  
BORREGO AP MOCLDY 73 45 35 NW8 29.64S  
OCOTILLO WELLS N/A 80 40 23 S1 29.55R  
CANEBRAKE N/A 71 40 32 CALM 29.58R  
BLYTHE PTCLDY 79 34 19 SW5 29.62S  
IMPERIAL AP CLEAR 74 41 30 W8 29.61R  
EL CENTRO NAS CLEAR 75 37 25 W12 29.63R  
YUMA AZ PTCLDY 72 44 36 S15 29.64R  
 

 
 
UPPER DESERT  
 
CITY SKY/WX TMP DP RH WIND PRES REMARKS
 
HESPERIA N/A 61 44 53 SW3 29.55R  
APPLE VALLEY N/A 65 38 36 E5 29.77F  
PALMDALE CLEAR 62 35 36 W9 29.80S  
LANCASTER CLEAR 64 34 32 W18 29.79S  
EDWARDS AFB CLEAR 62 37 39 SW15 29.75S  
GRAY BUTTE AP FAIR 58 34 40 W6 29.78S  
DAGGETT CLEAR 71 33 24 W16 29.73R  
29 PALMS N CLEAR 72 28 19 W9 29.78R  
29 PALMS JTNP N/A 70 28 20 CALM 29.58R  
NEEDLES CLEAR 81 1 4 SW12 29.63R  
 

 
 
REGIONAL REPORTS  
 
CITY SKY/WX TMP DP RH WIND PRES REMARKS
 
SANTA BARBARA CLEAR 54 49 83 NE5 29.77R  
SANDBERG CLEAR 57 21 24 NW12G20 29.91S  
LAS VEGAS NV MOCLDY 75 9 8 S3 29.68S  
PHOENIX AZ MOCLDY 82 25 12 W10 29.65R  
TIJUANA CLOUDY 57 46 67 CALM 29.85  
ENSENADA NW N/A 59 32 36 SW1 29.82S  
 

 
 
OFFSHORE ISLANDS  
 
CITY SKY/WX TMP DP RH WIND PRES REMARKS
 
CATALINA ARPT CLOUDY 51 50 96 CALM 29.81S FOG  
SAN CLEMENTE I N/A 54 50 87 NW7 29.82S  
SAN NICOLAS IS CLOUDY 49 47 93 NW18G25 29.79R  
 

 
 
MARINE AND OFFSHORE BUOY REPORTS  
 
STATION/POSITION SKY/WX TEMP WIND PRES VSBY SWELL
 
AIR SEA DIR/SP/G HT/PER/DIR  
(F) (DEG/KT/KT) (MB) (MI) (FT/S/D)  
TANNER BANKS 53 310/ 19/ 25 1010.4R 7/300/11  
S CLEMENTE BASIN 57 61 340/ 10/ 16 1008.9F 7/290/ 8  
SAN NICOLAS IS. 54 N/A 5/310/11  
SO. S. ROSA ISLA N/A 7/310/ 9  
W. S. BARBARA CH 310/ 21/ 27 1010.0R  
M. S. BARBARA CH 55 54 40/ 2/ 4 1008.6R 5/260/ 7  
S. MONICA BASIN 58 59 70/ 8/ 12 1008.6R 5/250/ 7  
S PEDRO CHANNEL 62 N/A 2/270/11  
OCEANSIDE OFFSHR 62 N/A 2/270/11  
TORREY PINES OTR 63 N/A 2/220/18  
SAN DIEGO BAY 65 1009.8  
IMPERIAL BEACH 61 N/A 2/220/18  
POINT LOMA SOUTH 63 N/A 2/280/11  
 

 
 
 
 
CLICK HERE TO GO TO PREVIOUS BULLETINS.

The Nexlab CA Page Main Text Page